Погода в Ильинке

Россия / Курская область     51°19′33″N   36°51′48″E
темп.,
°C
ветер,
м/с
пор.,
м/с
влажн.,
%
обл.,
%
осадки,
мм/ч
давл.,
гПа
погр.,
м
24 января, пн
пн2400:00−11ссв5149798 0.0 1029257
03:00−10ссв6169492 0.0 1028326
06:00−9ссв71793100 0.1 1028452
09:00−8св7149399 0.3 1029472
12:00−7св71294100 0.2 1029463
15:00−7ссв61193100 0.2 1029484
18:00−8ссв51195100 0.0 1029342
21:00−9ссв51096100 0.1 1028273
25 января, вт
вт2500:00−14св369977 0.0 102967
03:00−19ссв22100100 0.0 102911
06:00−19ссв23100100 0.0 102832
09:00−20св2210099 0.1 102728
12:00−12ссз1294100 0.0 1025104
15:00−10ссз1291100 0.0 1023172
18:00−12зюз2297100 0.0 102313
21:00−15зюз229875 0.0 102216
26 января, ср
ср2600:00−19юз2210078 0.0 102216
03:00−17юз35100100 0.0 102067
06:00−15юз2597100 0.0 101886
09:00−11юз3695100 0.1 1018161
12:00−8юз3594100 0.6 1018287
15:00−7юз3593100 0.9 1017392
18:00−9зюз229782 0.3 101835
21:00−10з129885 0.4 101813
27 января, чт
чт2700:00−11сз119795 0.3 101923
03:00−16сз2210091 0.3 10199
06:00−18сз11100100 0.1 10199
09:00−18юз1110099 0.1 10209
12:00−10ююз129477 0.0 1018106
15:00−9ююз249459 0.1 1017202
18:00−16ю2210081 0.0 101724
21:00−15ю38100100 0.0 101687
28 января, пт
пт2800:00−14ю410100100 0.0 1015147
03:00−11ю5129578 0.1 1013244
06:00−10ю51195100 0.1 1011226
09:00−8ююв61395100 0.3 1010306
12:00−5ю61295100 0.6 1008424
15:00−2ю6129694 1.3 1006555
18:00−1юз51198100 0.5 1005488
21:00−1юз51095100 0.8 1005509